Starlink 31853

operational
NORAD ID: 59933 Int'l Des: 2024-106 Owner: SPXS Country: US Constellation: starlink
LEOCIRCULAR

About Starlink 31853

Description loading...

Live Position

Loading 3D Globe...

Upcoming Passes

Altitude History

Altitude vs Time

uPlot chart will show altitude changes over time

Two-Line Element Set

1 59933U 24106M 25302.85809627 -.00001716 00000-0 -52885-4 0 9998
2 59933 43.0021 351.4053 0000867 26.7763 333.3133 15.27566946 80518
Epoch: Oct 29, 2025 • Age: 29 hours

Current Status

Altitude 485.6 km
Velocity 7.63 km/s
Sub-Earth Point 42.24°N, 2.77°E
Launch Date Jun 1, 2024
Age 1.4 years
Type internet

Technical Details

Classification Payload
Mass 730.00 kg
Dry Mass 700.00 kg
Total Mass 730.00 kg
Length 0.30 m
Diameter 4.10 m
Span 29.00 m
Shape Box + pan
Manufacturer SPXS
Bus Type Starlink V2M
Phase Status In Orbit
Owner/State SPXS/US

Large Constellations

Loading constellations...